Location: Grasslands National Park East Block
(49.0708°N, 106.5295°W)
Time: 12:38:20
(UTC-06:00)

Vanguard 2 - Visible Passes

Search period start: 22 September 2019 00:00
Search period end: 02 October 2019 00:00
Orbit: 554 x 2937 km, 32.9° (Epoch: 22 September)

Date Brightness Start Highest point End Pass type
(mag) Time Alt. Az. Time Alt. Az. Time Alt. Az.
22 Sep 10.4 03:42:02 26° S 03:43:17 27° SSE 03:51:04 10° ESE visible
22 Sep 10.0 05:43:26 12° WSW 05:52:04 29° S 05:58:25 10° SE visible
23 Sep 11.1 01:57:21 15° SE 01:57:21 15° SE 01:59:42 10° ESE visible
23 Sep 10.2 03:58:44 29° S 04:01:01 30° S 04:09:04 10° ESE visible
23 Sep 10.0 06:00:24 10° WSW 06:09:41 28° SSW 06:15:59 10° SE visible
24 Sep 10.9 02:14:02 20° SE 02:14:02 20° SE 02:18:19 10° ESE visible
24 Sep 10.1 04:15:26 29° SSW 04:18:43 33° S 04:26:55 10° ESE visible
24 Sep 10.0 06:18:17 10° WSW 06:27:15 27° SSW 06:33:24 10° SE visible
25 Sep 10.7 02:30:43 26° SE 02:30:43 26° SE 02:36:35 10° ESE visible
25 Sep 10.1 04:32:07 28° SW 04:36:25 34° S 04:44:39 10° ESE visible
26 Sep 10.5 02:47:24 31° SSE 02:47:24 31° SSE 02:54:39 10° ESE visible
26 Sep 10.1 04:48:48 26° SW 04:54:05 34° S 05:02:17 10° SE visible
27 Sep 11.4 01:02:42 11° ESE 01:02:42 11° ESE 01:03:00 10° ESE visible
27 Sep 10.3 03:04:06 35° SSE 03:04:06 35° SSE 03:12:32 10° ESE visible
27 Sep 10.1 05:05:29 23° SW 05:11:41 33° SSW 05:19:48 10° SE visible
28 Sep 11.2 01:19:24 15° ESE 01:19:24 15° ESE 01:21:23 10° ESE visible
28 Sep 10.2 03:20:48 38° S 03:20:48 38° S 03:30:20 10° ESE visible
28 Sep 10.1 05:22:12 20° WSW 05:29:14 31° SSW 05:37:11 10° SE visible
29 Sep 11.0 01:36:08 20° ESE 01:36:08 20° ESE 01:39:32 10° ESE visible
29 Sep 10.2 03:37:32 39° S 03:37:46 39° S 03:48:02 10° ESE visible
29 Sep 10.2 05:38:57 17° WSW 05:46:41 28° SSW 05:54:23 10° SSE visible
30 Sep 10.9 01:52:55 24° ESE 01:52:55 24° ESE 01:57:30 10° ESE visible
30 Sep 10.2 03:54:19 38° SSW 03:55:25 39° S 04:05:38 10° SE visible
30 Sep 10.4 05:55:43 13° WSW 06:04:02 25° SSW 06:11:22 10° SSE visible
01 Oct 10.8 02:09:44 28° SE 02:09:44 28° SE 02:15:22 10° ESE visible
01 Oct 10.2 04:11:08 36° SSW 04:13:01 37° SSW 04:23:06 10° SE visible
01 Oct 10.5 06:12:33 10° WSW 06:21:17 20° SW 06:28:00 10° S visible
